User: anonymous   Login
Location: Nairn
(57.5833°N, 3.8667°W)
Time: 19:55:27
(UTC+00:00)
Language:

Cosmos 1626 - Orbit

View from above orbital plane
View from above orbital plane
View from above satellite
View from above satellite

Ground track
Ground track

The orbit data is extracted from the following two-line orbital elements,

1 15494U 85009A   20304.17965519 +.00001304 +00000-0 +51939-4 0  9996
2 15494 082.4771 096.1334 0003668 071.7523 288.4113 15.24342783955902
Epoch (UTC): 30 October 2020 04:18:42
Eccentricity: 0.0003668
inclination: 82.4771°
perigee height: 490 km
apogee height: 495 km
right ascension of ascending node: 96.1334°
argument of perigee: 71.7523°
revolutions per day: 15.24342783
mean anomaly at epoch: 288.4113°
orbit number at epoch: 95590

The dashed part of the orbit path shows where the satellite is in the earth's shadow,  

DLR